URO901 EKCH-EDDP

Flight info

Callsign URO901
Flight time 1h 6m
Altitude 33000
Route SALLO M736 BAKDO/N0466F290 M736 INDOK/N0481F330 M736 MAG/N0472F300 Z20 KENIG/N0425F230 T959 KOJEC KOJEC1R
Aircraft A346/H-SDE2E3FGHIJ3J4J5M1RWXY/LB1D1

Departure

Time 2026-05-07 14:18
Airport Copenhagen Kastrup Airport (EKCH)

Arrival

Time 2026-05-07 15:25
Airport Leipzig/Halle Airport (EDDP)
Time Latitude Longitude Altitude Speed Heading
2026-05-07 13:43 55.61874 12.67122 32 ft 0 kts 79°
2026-05-07 14:03 55.61874 12.67121 32 ft 0 kts 79°
2026-05-07 14:03 55.61870 12.67082 30 ft 4 kts 79°
2026-05-07 14:03 55.61865 12.67040 30 ft 3 kts 79°
2026-05-07 14:03 55.61865 12.67000 31 ft 4 kts 106°
2026-05-07 14:04 55.61873 12.66976 28 ft 4 kts 147°
2026-05-07 14:04 55.61894 12.66963 30 ft 4 kts 170°
2026-05-07 14:04 55.61917 12.66956 29 ft 1 kts 168°
2026-05-07 14:05 55.61918 12.66956 29 ft 0 kts 168°
2026-05-07 14:09 55.61900 12.66962 32 ft 5 kts 168°
2026-05-07 14:09 55.61851 12.66980 32 ft 9 kts 169°
2026-05-07 14:09 55.61778 12.67005 32 ft 12 kts 169°
2026-05-07 14:09 55.61686 12.67037 32 ft 15 kts 169°
2026-05-07 14:10 55.61588 12.67072 32 ft 11 kts 169°
2026-05-07 14:10 55.61507 12.67100 32 ft 13 kts 169°
2026-05-07 14:10 55.61407 12.67129 32 ft 16 kts 177°
2026-05-07 14:10 55.61317 12.67094 33 ft 12 kts 208°
2026-05-07 14:11 55.61288 12.66968 33 ft 13 kts 287°
2026-05-07 14:11 55.61343 12.66814 33 ft 16 kts 304°
2026-05-07 14:11 55.61412 12.66630 32 ft 20 kts 303°
2026-05-07 14:11 55.61492 12.66415 32 ft 16 kts 303°
2026-05-07 14:12 55.61550 12.66257 32 ft 16 kts 303°
2026-05-07 14:12 55.61591 12.66145 34 ft 9 kts 303°
2026-05-07 14:12 55.61618 12.66072 32 ft 8 kts 303°
2026-05-07 14:12 55.61672 12.65926 34 ft 18 kts 303°
2026-05-07 14:13 55.61749 12.65717 34 ft 26 kts 303°
2026-05-07 14:13 55.61853 12.65438 31 ft 28 kts 303°
2026-05-07 14:13 55.61955 12.65164 31 ft 24 kts 303°
2026-05-07 14:13 55.62000 12.64956 32 ft 13 kts 240°
2026-05-07 14:14 55.61916 12.64841 32 ft 17 kts 213°
2026-05-07 14:14 55.61798 12.64704 32 ft 23 kts 213°
2026-05-07 14:14 55.61650 12.64536 32 ft 27 kts 212°
2026-05-07 14:14 55.61487 12.64348 32 ft 29 kts 213°
2026-05-07 14:15 55.61317 12.64151 32 ft 30 kts 213°
2026-05-07 14:15 55.61140 12.63950 32 ft 29 kts 213°
2026-05-07 14:15 55.60967 12.63752 32 ft 30 kts 213°
2026-05-07 14:15 55.60799 12.63557 32 ft 27 kts 213°
2026-05-07 14:16 55.60648 12.63376 32 ft 21 kts 218°
2026-05-07 14:16 55.60542 12.63215 32 ft 17 kts 221°
2026-05-07 14:16 55.60467 12.63122 32 ft 13 kts 191°
2026-05-07 14:16 55.60385 12.63196 32 ft 12 kts 134°
2026-05-07 14:17 55.60346 12.63313 34 ft 10 kts 96°
2026-05-07 14:17 55.60390 12.63422 34 ft 9 kts 41°
2026-05-07 14:17 55.60414 12.63459 33 ft 27 kts 41°
2026-05-07 14:17 55.60792 12.64044 35 ft 114 kts 41°
2026-05-07 14:18 55.61576 12.65256 48 ft 180 kts 42°
2026-05-07 14:18 55.62540 12.66825 834 ft 188 kts 43°
2026-05-07 14:18 55.63504 12.68378 1928 ft 186 kts 42°
2026-05-07 14:18 55.64460 12.69889 2848 ft 187 kts 41°
2026-05-07 14:19 55.65469 12.71471 3420 ft 201 kts 37°
2026-05-07 14:19 55.66582 12.73070 3930 ft 216 kts 36°
2026-05-07 14:19 55.67808 12.74805 4404 ft 235 kts 37°
2026-05-07 14:19 55.69125 12.76727 4952 ft 254 kts 41°
2026-05-07 14:20 55.70156 12.79346 5685 ft 266 kts 69°
2026-05-07 14:20 55.70381 12.82609 6613 ft 270 kts 97°
2026-05-07 14:20 55.69731 12.85746 7458 ft 275 kts 124°
2026-05-07 14:20 55.68315 12.88037 8263 ft 281 kts 152°
2026-05-07 14:21 55.66489 12.89305 9108 ft 284 kts 160°
2026-05-07 14:21 55.64604 12.90445 9932 ft 289 kts 160°
2026-05-07 14:21 55.62670 12.91536 10631 ft 297 kts 168°
2026-05-07 14:21 55.60558 12.91536 11063 ft 314 kts 193°
2026-05-07 14:22 55.58526 12.89905 11431 ft 331 kts 218°
2026-05-07 14:22 55.56836 12.86987 11858 ft 347 kts 227°
2026-05-07 14:22 55.55147 12.83789 12269 ft 364 kts 227°
2026-05-07 14:22 55.53318 12.80554 12656 ft 380 kts 219°
2026-05-07 14:23 55.50984 12.78379 13288 ft 388 kts 197°
2026-05-07 14:23 55.48318 12.77800 14177 ft 389 kts 177°
2026-05-07 14:23 55.45615 12.78342 14988 ft 391 kts 173°
2026-05-07 14:23 55.42902 12.78982 15654 ft 396 kts 173°
2026-05-07 14:24 55.40147 12.79612 16342 ft 401 kts 173°
2026-05-07 14:24 55.37366 12.80226 17045 ft 405 kts 174°
2026-05-07 14:24 55.34580 12.81225 17721 ft 411 kts 163°
2026-05-07 14:24 55.31940 12.83208 18398 ft 417 kts 152°
2026-05-07 14:25 55.29525 12.86102 18992 ft 422 kts 143°
2026-05-07 14:25 55.27213 12.89329 19571 ft 426 kts 142°
2026-05-07 14:25 55.24894 12.92624 20183 ft 430 kts 142°
2026-05-07 14:25 55.22552 12.95941 20784 ft 433 kts 142°
2026-05-07 14:26 55.20225 12.99213 21379 ft 437 kts 142°
2026-05-07 14:26 55.17845 13.02541 21969 ft 440 kts 143°
2026-05-07 14:26 55.15430 13.05903 22560 ft 444 kts 143°
2026-05-07 14:26 55.12999 13.09275 23129 ft 447 kts 143°
2026-05-07 14:27 55.10550 13.12665 23698 ft 451 kts 143°
2026-05-07 14:27 55.08075 13.16083 24167 ft 454 kts 143°
2026-05-07 14:27 55.05593 13.19508 24652 ft 457 kts 143°
2026-05-07 14:27 55.03087 13.22954 25153 ft 459 kts 143°
2026-05-07 14:28 55.00563 13.26416 25644 ft 462 kts 143°
2026-05-07 14:28 54.98028 13.29887 26124 ft 464 kts 143°
2026-05-07 14:28 54.95452 13.33309 26571 ft 466 kts 148°
2026-05-07 14:28 54.92519 13.35691 26935 ft 466 kts 166°
2026-05-07 14:29 54.89323 13.36472 27398 ft 464 kts 182°
2026-05-07 14:29 54.86145 13.35676 27851 ft 463 kts 197°
2026-05-07 14:29 54.83075 13.33988 28333 ft 464 kts 199°
2026-05-07 14:29 54.79986 13.32250 28736 ft 468 kts 199°
2026-05-07 14:30 54.76892 13.30521 29286 ft 467 kts 199°
2026-05-07 14:30 54.73802 13.28812 29984 ft 465 kts 198°
2026-05-07 14:30 54.70762 13.27146 30576 ft 463 kts 198°
2026-05-07 14:30 54.67699 13.25476 31085 ft 462 kts 198°
2026-05-07 14:31 54.64624 13.23807 31543 ft 462 kts 198°
2026-05-07 14:31 54.61555 13.22144 31923 ft 464 kts 198°
2026-05-07 14:31 54.58456 13.20468 32264 ft 467 kts 198°
2026-05-07 14:31 54.55354 13.18793 32622 ft 469 kts 198°
2026-05-07 14:32 54.52239 13.17113 33003 ft 470 kts 198°
2026-05-07 14:32 54.45981 13.13749 33094 ft 470 kts 197°
2026-05-07 14:33 54.39719 13.10577 33095 ft 469 kts 197°
2026-05-07 14:33 54.33438 13.07472 33095 ft 470 kts 197°
2026-05-07 14:34 54.27198 13.04377 33097 ft 468 kts 197°
2026-05-07 14:34 54.20942 13.01274 33089 ft 468 kts 197°
2026-05-07 14:35 54.14705 12.98157 33078 ft 467 kts 198°
2026-05-07 14:35 54.08590 12.94280 33084 ft 466 kts 204°
2026-05-07 14:36 54.02631 12.89870 33083 ft 467 kts 203°
2026-05-07 14:36 53.96666 12.85522 33080 ft 465 kts 203°
2026-05-07 14:37 53.90735 12.81208 33081 ft 467 kts 203°
2026-05-07 14:37 53.81788 12.74706 33073 ft 467 kts 202°
2026-05-07 14:38 53.76821 12.71104 33068 ft 466 kts 202°
2026-05-07 14:38 53.70839 12.66788 33072 ft 467 kts 202°
2026-05-07 14:39 53.64865 12.62485 33067 ft 466 kts 202°
2026-05-07 14:39 53.58878 12.58186 33068 ft 468 kts 202°
2026-05-07 14:40 53.52895 12.53900 33064 ft 469 kts 202°
2026-05-07 14:40 53.46889 12.49609 33065 ft 467 kts 202°
2026-05-07 14:41 53.40928 12.45369 33062 ft 469 kts 202°
2026-05-07 14:41 53.34926 12.41111 33060 ft 469 kts 202°
2026-05-07 14:42 53.28885 12.36838 33055 ft 471 kts 202°
2026-05-07 14:42 53.22849 12.32579 33054 ft 470 kts 202°
2026-05-07 14:43 53.16815 12.28335 33060 ft 469 kts 202°
2026-05-07 14:43 53.10783 12.24108 33062 ft 471 kts 202°
2026-05-07 14:44 53.04741 12.19884 33052 ft 471 kts 202°
2026-05-07 14:44 52.98691 12.15670 33055 ft 472 kts 202°
2026-05-07 14:45 52.92702 12.11233 33054 ft 472 kts 206°
2026-05-07 14:45 52.86793 12.06478 33056 ft 471 kts 205°
2026-05-07 14:46 52.80908 12.01795 33055 ft 472 kts 205°
2026-05-07 14:46 52.74868 11.97569 33053 ft 471 kts 200°
2026-05-07 14:47 52.68702 11.93833 33055 ft 472 kts 198°
2026-05-07 14:47 52.62379 11.90949 33055 ft 472 kts 192°
2026-05-07 14:48 52.62194 11.90883 33055 ft 472 kts 192°
2026-05-07 14:48 52.56748 11.89346 33057 ft 473 kts 187°
2026-05-07 14:49 52.50201 11.88208 33058 ft 473 kts 186°
2026-05-07 14:49 52.43700 11.87053 33055 ft 473 kts 186°
2026-05-07 14:50 52.37146 11.85899 33054 ft 473 kts 186°
2026-05-07 14:50 52.30588 11.84757 33062 ft 474 kts 186°
2026-05-07 14:51 52.24027 11.83618 33061 ft 473 kts 186°
2026-05-07 14:51 52.17460 11.82485 33061 ft 475 kts 186°
2026-05-07 14:52 52.10869 11.81351 33062 ft 474 kts 186°
2026-05-07 14:52 52.04423 11.79324 33065 ft 475 kts 196°
2026-05-07 14:53 51.98285 11.75373 33067 ft 475 kts 207°
2026-05-07 14:53 51.92687 11.69630 33069 ft 477 kts 217°
2026-05-07 14:54 51.90133 11.66182 32866 ft 477 kts 220°
2026-05-07 14:54 51.87643 11.62639 32596 ft 475 kts 221°
2026-05-07 14:54 51.85171 11.59097 32329 ft 473 kts 221°
2026-05-07 14:54 51.82707 11.55584 32057 ft 470 kts 221°
2026-05-07 14:55 51.80246 11.52097 31683 ft 469 kts 221°
2026-05-07 14:55 51.77780 11.48616 31205 ft 469 kts 220°
2026-05-07 14:55 51.75312 11.45141 30628 ft 470 kts 220°
2026-05-07 14:55 51.72845 11.41676 29979 ft 470 kts 220°
2026-05-07 14:56 51.70374 11.38322 29195 ft 470 kts 215°
2026-05-07 14:56 51.67472 11.35918 28416 ft 469 kts 197°
2026-05-07 14:56 51.64287 11.34989 27797 ft 466 kts 181°
2026-05-07 14:56 51.61051 11.35540 27400 ft 467 kts 164°
2026-05-07 14:57 51.58075 11.37537 26881 ft 462 kts 147°
2026-05-07 14:57 51.55614 11.40818 26393 ft 456 kts 130°
2026-05-07 14:57 51.53873 11.45020 25910 ft 449 kts 114°
2026-05-07 14:57 51.52947 11.49754 25486 ft 442 kts 98°
2026-05-07 14:58 51.52872 11.54658 25067 ft 435 kts 82°
2026-05-07 14:58 51.53615 11.59296 24637 ft 429 kts 66°
2026-05-07 14:58 51.55092 11.63418 24210 ft 423 kts 51°
2026-05-07 14:58 51.57168 11.66720 23782 ft 419 kts 38°
2026-05-07 14:59 51.59415 11.69684 23302 ft 416 kts 42°
2026-05-07 14:59 51.61310 11.73238 22388 ft 420 kts 56°
2026-05-07 14:59 51.62501 11.77592 21334 ft 429 kts 75°
2026-05-07 14:59 51.62916 11.82345 20747 ft 426 kts 84°
2026-05-07 15:00 51.63178 11.87076 20159 ft 421 kts 84°
2026-05-07 15:00 51.63415 11.91766 19497 ft 419 kts 84°
2026-05-07 15:00 51.63643 11.96429 18874 ft 416 kts 84°
2026-05-07 15:00 51.63867 12.01051 18318 ft 413 kts 84°
2026-05-07 15:01 51.64088 12.05653 17750 ft 410 kts 84°
2026-05-07 15:01 51.64306 12.10208 17199 ft 406 kts 84°
2026-05-07 15:01 51.64520 12.14739 16662 ft 403 kts 84°
2026-05-07 15:01 51.64732 12.19252 16136 ft 400 kts 84°
2026-05-07 15:02 51.64938 12.23646 15636 ft 396 kts 85°
2026-05-07 15:02 51.65141 12.28051 15185 ft 391 kts 85°
2026-05-07 15:02 51.65342 12.32422 14673 ft 388 kts 85°
2026-05-07 15:02 51.65238 12.36754 13928 ft 387 kts 101°
2026-05-07 15:03 51.64248 12.40773 12787 ft 384 kts 122°
2026-05-07 15:03 51.62529 12.43977 11858 ft 375 kts 140°
2026-05-07 15:03 51.60316 12.46114 10814 ft 371 kts 159°
2026-05-07 15:03 51.57814 12.46983 9831 ft 366 kts 178°
2026-05-07 15:04 51.55378 12.46571 9241 ft 348 kts 196°
2026-05-07 15:04 51.53224 12.45058 8736 ft 330 kts 214°
2026-05-07 15:04 51.51551 12.42722 8269 ft 310 kts 231°
2026-05-07 15:04 51.50429 12.39893 7841 ft 292 kts 248°
2026-05-07 15:05 51.49852 12.36868 7360 ft 277 kts 262°
2026-05-07 15:05 51.49781 12.33814 6738 ft 272 kts 277°
2026-05-07 15:05 51.50105 12.30838 6035 ft 269 kts 285°
2026-05-07 15:05 51.50591 12.27943 5470 ft 267 kts 287°
2026-05-07 15:06 51.51071 12.25086 5129 ft 263 kts 285°
2026-05-07 15:06 51.51499 12.22222 4733 ft 263 kts 284°
2026-05-07 15:06 51.51877 12.19349 4355 ft 262 kts 283°
2026-05-07 15:06 51.52208 12.16468 3995 ft 261 kts 282°
2026-05-07 15:07 51.52492 12.13594 3610 ft 260 kts 280°
2026-05-07 15:07 51.52736 12.10711 3232 ft 260 kts 278°
2026-05-07 15:07 51.52932 12.07838 3013 ft 258 kts 277°
2026-05-07 15:07 51.53081 12.04948 2998 ft 260 kts 274°
2026-05-07 15:08 51.52770 12.02104 2989 ft 263 kts 244°
2026-05-07 15:08 51.51794 11.99613 3023 ft 264 kts 234°
2026-05-07 15:08 51.50714 11.97269 3014 ft 264 kts 234°
2026-05-07 15:08 51.49632 11.94879 3010 ft 265 kts 235°
2026-05-07 15:09 51.48579 11.92450 3008 ft 265 kts 236°
2026-05-07 15:09 51.47550 11.89993 2996 ft 264 kts 237°
2026-05-07 15:09 51.46534 11.87529 3004 ft 264 kts 237°
2026-05-07 15:09 51.45526 11.85062 3008 ft 264 kts 237°
2026-05-07 15:10 51.44518 11.82592 3009 ft 264 kts 238°
2026-05-07 15:10 51.43516 11.80129 3009 ft 263 kts 238°
2026-05-07 15:10 51.42512 11.77666 3006 ft 264 kts 238°
2026-05-07 15:10 51.41508 11.75194 3010 ft 263 kts 238°
2026-05-07 15:11 51.40503 11.72724 3003 ft 264 kts 238°
2026-05-07 15:11 51.39499 11.70262 3003 ft 264 kts 238°
2026-05-07 15:11 51.38503 11.67822 2998 ft 257 kts 238°
2026-05-07 15:11 51.37538 11.65502 2991 ft 243 kts 237°
2026-05-07 15:12 51.36614 11.63309 2990 ft 233 kts 237°
2026-05-07 15:12 51.35703 11.61150 2999 ft 234 kts 237°
2026-05-07 15:12 51.34797 11.58993 2996 ft 233 kts 237°
2026-05-07 15:12 51.33891 11.56841 2968 ft 232 kts 237°
2026-05-07 15:13 51.32989 11.54696 2997 ft 233 kts 237°
2026-05-07 15:13 51.32082 11.52543 3003 ft 233 kts 237°
2026-05-07 15:13 51.31184 11.50380 3003 ft 233 kts 243°
2026-05-07 15:13 51.30718 11.47942 2994 ft 229 kts 270°
2026-05-07 15:14 51.30967 11.45495 3009 ft 225 kts 296°
2026-05-07 15:14 51.31837 11.43459 3014 ft 222 kts 320°
2026-05-07 15:14 51.33145 11.42199 3025 ft 220 kts 344°
2026-05-07 15:14 51.34640 11.41906 3004 ft 217 kts
2026-05-07 15:15 51.36081 11.42613 3009 ft 218 kts 30°
2026-05-07 15:15 51.37220 11.44197 3009 ft 219 kts 53°
2026-05-07 15:15 51.37762 11.46458 2994 ft 222 kts 84°
2026-05-07 15:15 51.37911 11.48928 3028 ft 222 kts 82°
2026-05-07 15:16 51.38084 11.51394 3008 ft 222 kts 82°
2026-05-07 15:16 51.38245 11.53862 3009 ft 223 kts 82°
2026-05-07 15:16 51.38385 11.56280 2986 ft 211 kts 83°
2026-05-07 15:16 51.38502 11.58567 3016 ft 203 kts 84°
2026-05-07 15:17 51.38608 11.60822 3032 ft 202 kts 83°
2026-05-07 15:17 51.38705 11.63073 3010 ft 202 kts 84°
2026-05-07 15:17 51.38797 11.65319 3019 ft 202 kts 84°
2026-05-07 15:17 51.38886 11.67565 3014 ft 202 kts 84°
2026-05-07 15:18 51.38972 11.69811 3012 ft 202 kts 84°
2026-05-07 15:18 51.39059 11.72057 3003 ft 202 kts 84°
2026-05-07 15:18 51.39146 11.74309 3010 ft 202 kts 84°
2026-05-07 15:18 51.39233 11.76531 3007 ft 202 kts 84°
2026-05-07 15:19 51.39322 11.78784 3002 ft 202 kts 84°
2026-05-07 15:19 51.39413 11.81040 3006 ft 203 kts 84°
2026-05-07 15:19 51.39506 11.83299 3009 ft 203 kts 84°
2026-05-07 15:19 51.39600 11.85550 3002 ft 203 kts 84°
2026-05-07 15:20 51.39696 11.87806 3003 ft 203 kts 84°
2026-05-07 15:20 51.39792 11.90065 3008 ft 203 kts 84°
2026-05-07 15:20 51.39889 11.92318 2989 ft 202 kts 84°
2026-05-07 15:20 51.39987 11.94557 2985 ft 201 kts 84°
2026-05-07 15:21 51.40085 11.96776 2970 ft 193 kts 84°
2026-05-07 15:21 51.40172 11.98804 2936 ft 173 kts 84°
2026-05-07 15:21 51.40258 12.00718 2934 ft 171 kts 84°
2026-05-07 15:21 51.40344 12.02610 2707 ft 167 kts 83°
2026-05-07 15:22 51.40426 12.04444 2491 ft 163 kts 83°
2026-05-07 15:22 51.40507 12.06245 2266 ft 159 kts 83°
2026-05-07 15:22 51.40588 12.08014 2030 ft 158 kts 82°
2026-05-07 15:22 51.40668 12.09772 1806 ft 158 kts 83°
2026-05-07 15:23 51.40748 12.11525 1591 ft 157 kts 83°
2026-05-07 15:23 51.40828 12.13271 1381 ft 157 kts 83°
2026-05-07 15:23 51.40881 12.14428 1235 ft 156 kts 83°
2026-05-07 15:23 51.40960 12.16165 999 ft 156 kts 83°
2026-05-07 15:24 51.41058 12.18462 700 ft 155 kts 83°
2026-05-07 15:24 51.41148 12.20189 531 ft 155 kts 83°
2026-05-07 15:24 51.41202 12.21333 458 ft 141 kts 85°
2026-05-07 15:24 51.41255 12.22480 466 ft 65 kts 85°
2026-05-07 15:25 51.41271 12.22816 470 ft 10 kts 85°
2026-05-07 15:25 51.41277 12.22946 470 ft 14 kts 85°
2026-05-07 15:25 51.41285 12.23109 472 ft 15 kts 85°
2026-05-07 15:25 51.41283 12.23203 470 ft 8 kts 108°
2026-05-07 15:26 51.41242 12.23259 473 ft 7 kts 163°
2026-05-07 15:26 51.41183 12.23275 471 ft 8 kts 172°
2026-05-07 15:26 51.41137 12.23321 472 ft 8 kts 122°
2026-05-07 15:26 51.41126 12.23376 478 ft 5 kts 92°
2026-05-07 15:27 51.41127 12.23433 479 ft 5 kts 88°
2026-05-07 15:27 51.41129 12.23495 479 ft 6 kts 86°
2026-05-07 15:27 51.41133 12.23583 472 ft 10 kts 86°
2026-05-07 15:27 51.41134 12.23615 472 ft 5 kts 94°
2026-05-07 15:28 51.41104 12.23684 469 ft 9 kts 141°
2026-05-07 15:28 51.41046 12.23732 472 ft 10 kts 161°
2026-05-07 15:28 51.40966 12.23752 474 ft 14 kts 175°
2026-05-07 15:28 51.40874 12.23765 469 ft 6 kts 176°
2026-05-07 15:29 51.40817 12.23771 471 ft 10 kts 176°
2026-05-07 15:29 51.40759 12.23788 469 ft 6 kts 146°
2026-05-07 15:29 51.40743 12.23848 471 ft 6 kts 97°
2026-05-07 15:29 51.40743 12.23873 470 ft 0 kts 89°